This is the latest recevied weather packets stored in our database for station/object KB4JHU-15. If no packets are shown the sender has not sent any weather packets the latest 10 day(s).
| Time | Temp. | Humidity | Pressure | Rain* | Wind** | Luminosity | Snow |
|---|---|---|---|---|---|---|---|
| 1778103462 | 15.56° C | 96% | - | 1.78 mm | - | - | - |
| 1778101661 | 16.67° C | 95% | - | 1.27 mm | - | - | - |
| 1778099860 | 17.78° C | 96% | - | 0.76 mm | - | - | - |
| 1778098060 | 17.78° C | 95% | - | 1.02 mm | - | - | - |
| 1778096258 | 18.89° C | 95% | - | 1.52 mm | - | - | - |
| 1778094457 | 18.89° C | 94% | - | 2.29 mm | - | - | - |
| 1778092656 | 19.44° C | 94% | - | 3.81 mm | - | - | - |
| 1778090855 | 20° C | 95% | - | 4.32 mm | - | - | - |
| 1778089054 | 20° C | 95% | - | 2.54 mm | - | - | - |
| 1778087253 | 20.56° C | 90% | - | 0.51 mm | - | - | - |
| 1778085452 | 21.11° C | 86% | - | 0 mm | - | - | - |
| 1778083651 | 21.67° C | 84% | - | 0 mm | - | - | - |
| 1778081850 | 20.56° C | 91% | - | 0 mm | - | - | - |
| 1778080049 | 20° C | 98% | - | 0 mm | - | - | - |
| 1778078248 | 18.89° C | 100% | - | 0 mm | - | - | - |
| 1778076447 | 17.78° C | 100% | - | 2.29 mm | - | - | - |
| 1778074646 | 17.78° C | 98% | - | 6.1 mm | - | - | - |
| 1778072845 | 17.78° C | 96% | - | 7.62 mm | - | - | - |
| 1778071044 | 18.33° C | 98% | - | 22.35 mm | - | - | - |
| 1778069243 | 18.89° C | 98% | - | 23.37 mm | - | - | - |
| 1778067442 | 18.89° C | 95% | - | 7.37 mm | - | - | - |
| 1778065641 | 19.44° C | 93% | - | 4.32 mm | - | - | - |
| 1778063840 | 18.89° C | 92% | - | 2.03 mm | - | - | - |
| 1778062040 | 19.44° C | 89% | - | 0.25 mm | - | - | - |
| 1778060238 | 20° C | 84% | - | 0 mm | - | - | - |
* Rain latest hour (hover to see other rain measurements)
** Current wind speed in m/s (hover to see current wind gust speed)